カタログに戻る

CAPSTONE

運用中科学LPO
NORAD 52914·PAYLOAD·🇺🇸 United States

打ち上げ Jun 28, 2022 から Rocket Lab Launch Complex 1

Loading…

TLE

古いSource: Space-Track

元期: Jul 3, 2022, 03:24 UTC

1 52914U 22070A   22184.14236111 -.00000375  00000-0  00000+0 0  9993
2 52914  39.0806 321.8334 8405410 344.4990 285.0037  1.02266752   396

AllMySatでCAPSTONEをリアルタイム追跡

Download on the App Store